Location: Chervonnoye
(48.6000°N, 34.4000°E)
Time: 06:19:33
(UTC+00:00)

Nadezhda 1 Rocket - Pass Details

Date: 17 April 2021
Orbit: 940 x 1006 km, 83.0° (Epoch: 13 May)

Event Time Altitude Azimuth Distance (km) Brightness Sun altitude
Exits shadow 01:06:58 - 282° (WNW) 3,002 6.2 -15.7°
Reaches altitude 10° 01:09:15 10° 301° (WNW) 2,788 6.2 -15.4°
Maximum altitude 01:09:59 10° 308° (NW) 2,774 6.2 -15.3°
Drops below altitude 10° 01:10:44 10° 315° (NW) 2,788 6.3 -15.2°
Sets 01:16:36 0° 357° (N) 3,734 7.5 -14.4°
